Weather in Bohumín

Czech Republic     49°54′12″N   18°21′16″E
temp.,
°C
wind,
m/s
gust,
m/s
humid.,
%
clouds,
%
prec.,
mm/h
press.,
hPa
HPBL,
m
3 august, tue
tue323:00+14sw11840 0.3 101513
02:00+13ssw11880 0.3 101615
05:00+13ssw22895 0.0 101528
08:00+17ssw24743 0.0 1016289
11:00+21sw45565 0.8 10151166
14:00+24sw564399 1.0 10142335
17:00+23wsw3547100 0.0 10131584
20:00+20w115694 0.0 101311
4 august, wed
wed423:00+16ssw116997 0.1 101411
02:00+15wsw1183100 1.9 101417
05:00+15sw1183100 0.0 101415
08:00+15ene1288100 0.6 101577
11:00+15ne1290100 0.4 1016174
14:00+18s237888 0.7 1015648
17:00+20s226391 0.0 1013839
20:00+18ese2274100 0.0 101315
5 august, thu
thu523:00+15ese2290100 0.0 101333
02:00+15ne2291100 0.0 101238
05:00+14nne2293100 0.0 101149
08:00+15n2493100 0.6 1010212
11:00+15nne3595100 1.4 1009363
14:00+15nne4795100 4.8 1009465
17:00+15n4895100 5.1 1008480
20:00+15nnw4796100 7.3 1007370
6 august, fri
fri623:00+14nnw5897100 0.4 1007366
02:00+14nw4996100 1.4 1007382
05:00+14nw389675 0.3 1007336
08:00+15nw3690100 0.3 1008343
11:00+19nnw346999 0.3 10081101
14:00+20nnw2363100 1.5 10081129
17:00+22nnw135466 0.2 10081447
20:00+19w116920 0.3 100912
7 august, sat
sat723:00+15nw11840 0.0 101011
02:00+14sw11870 0.0 101111
05:00+13s22900 0.0 101119
08:00+17ssw23755 0.0 1011224
11:00+23ssw33572 0.0 10111007
14:00+25ssw44465 0.0 10101719
17:00+26sw35435 0.0 10091525
20:00+22ese115865 0.0 100911